"Pseudo-MPEC" for GG0380

Created 2023 Sep 30 19:22:07 UT using Find_Orb

Click here for an explanation of pseudo-MPECs

 
 Astrometry: 
     GG0380 *MC2023 09 09jZ/x+(M#u2JkB0gW(`)DkwAstrometryi(Dredacted;yclickJmQ62
     GG0380  MC2023 09 09)yDsY-K5yBehereeF0-WQ97G]for\y'explanationdC5k/h5\!vQ62

Station data:
(Q62) iTelescope Observatory, Siding Spring  (S31.273286 E149.064420)
   Australia/NSW.  Observers H. Sato, T. Prystavski, M. Mattiazzo, A. Pearce,
   F. D. Romanov. 0.51-m f/6.8 astrograph + CCD + f/4.5 focal reducer0.43-m
   f/6.8 astrograph + CCD + focal reducer0.43-m f/6.8 astrograph + CCD0.10-m
   f/5 astrograph + CCD0.127-m f/5.6 refractor + CCD0.50-m f/6.8 reflector +
   CCD0.30-m f/9 reflector + CCD.

Orbital elements:  GG0380
   Perihelion 2023 Oct 5.42805 +/- 47.2 TT = 10:16:23 (JD 2460222.92805)
Epoch 2023 Sep  9.0 TT = JDT 2460196.5   Earth MOID: 0.1933      AutoNEOCP
M 348.45501667 +/- 23               (J2000 ecliptic)
n   0.43684586 +/- 0.314            Peri.    9.25597 +/- 70
a   1.72021961 +/- 0.825            Node   357.26804 +/- 59
e   0.3056084 +/- 0.262             Incl.   15.63106 +/- 9
P   2.26/824.07d           H 21.94  G  0.15   U 12.0  SR
q 1.19450598 +/- 0.286    Q 2.24593324 +/- 38.8
From 2 observations 2023 Sept. 9 (21.2 min); mean residual 0".01
Residuals in arcseconds: 
230909 Q62  .01-  .00     230909 Q62  .01-  .00     

Ephemerides (geocentric):
Date (UTC) HH   RA             Dec           delta  r     elong  mag " sig PA
---- --------  ------------   ------------  ------ ------ -----  --- --------
2023 09 30 19  22 33 06.030   -00 37 38.37  .21521 1.1952 151.6 20.1  55d  72
2023 09 30 20  22 33 03.180   -00 34 36.71  .21529 1.1952 151.6 20.1  55d  72
2023 09 30 21  22 33 00.338   -00 31 35.16  .21536 1.1952 151.5 20.1  55d  72
2023 09 30 22  22 32 57.504   -00 28 33.73  .21543 1.1951 151.5 20.1  55d  72
2023 09 30 23  22 32 54.679   -00 25 32.41  .21550 1.1951 151.4 20.1  55d  72
2023 10 01 00  22 32 51.862   -00 22 31.20  .21558 1.1951 151.4 20.1  55d  72
2023 10 01 01  22 32 49.052   -00 19 30.11  .21565 1.1951 151.3 20.1  55d  72
2023 10 01 02  22 32 46.252   -00 16 29.13  .21573 1.1951 151.3 20.1  55d  72
2023 10 01 03  22 32 43.459   -00 13 28.26  .21580 1.1951 151.3 20.1  55d  72
2023 10 01 04  22 32 40.674   -00 10 27.51  .21588 1.1951 151.2 20.1  55d  72
2023 10 01 05  22 32 37.898   -00 07 26.88  .21595 1.1951 151.2 20.1  55d  72
2023 10 01 06  22 32 35.130   -00 04 26.36  .21603 1.1951 151.1 20.1  55d  72
2023 10 01 07  22 32 32.371   -00 01 25.96  .21610 1.1950 151.1 20.1  55d  72
2023 10 01 08  22 32 29.619   +00 01 34.32  .21618 1.1950 151.0 20.1  55d  72
2023 10 01 09  22 32 26.876   +00 04 34.49  .21626 1.1950 151.0 20.1  55d  72
2023 10 01 10  22 32 24.141   +00 07 34.54  .21633 1.1950 150.9 20.1  55d  72
2023 10 01 11  22 32 21.414   +00 10 34.47  .21641 1.1950 150.9 20.1  55d  72
2023 10 01 12  22 32 18.696   +00 13 34.28  .21649 1.1950 150.9 20.1  55d  72
2023 10 01 13  22 32 15.985   +00 16 33.97  .21657 1.1950 150.8 20.1  55d  72
2023 10 01 14  22 32 13.284   +00 19 33.54  .21664 1.1950 150.8 20.1  55d  72
2023 10 01 15  22 32 10.590   +00 22 32.99  .21672 1.1950 150.7 20.1  55d  72
2023 10 01 16  22 32 07.904   +00 25 32.32  .21680 1.1949 150.7 20.1  55d  72
2023 10 01 17  22 32 05.227   +00 28 31.53  .21688 1.1949 150.6 20.1  55d  72
2023 10 01 18  22 32 02.558   +00 31 30.61  .21696 1.1949 150.6 20.1  55d  72
2023 10 01 19  22 31 59.898   +00 34 29.58  .21704 1.1949 150.5 20.1  55d  72
2023 10 01 20  22 31 57.246   +00 37 28.42  .21712 1.1949 150.5 20.1  55d  72
2023 10 01 21  22 31 54.602   +00 40 27.14  .21720 1.1949 150.4 20.1  55d  72
2023 10 01 22  22 31 51.966   +00 43 25.73  .21728 1.1949 150.4 20.1  55d  72
2023 10 01 23  22 31 49.338   +00 46 24.21  .21736 1.1949 150.4 20.1  55d  72
2023 10 02 00  22 31 46.719   +00 49 22.55  .21744 1.1949 150.3 20.1  55d  73
2023 10 02 01  22 31 44.109   +00 52 20.77  .21752 1.1949 150.3 20.2  55d  73
2023 10 02 02  22 31 41.506   +00 55 18.87  .21760 1.1949 150.2 20.2  55d  73
2023 10 02 03  22 31 38.912   +00 58 16.84  .21768 1.1948 150.2 20.2  55d  73
2023 10 02 04  22 31 36.326   +01 01 14.69  .21777 1.1948 150.1 20.2  55d  73
2023 10 02 05  22 31 33.748   +01 04 12.40  .21785 1.1948 150.1 20.2  55d  73
2023 10 02 06  22 31 31.179   +01 07 09.99  .21793 1.1948 150.0 20.2  55d  73
2023 10 02 07  22 31 28.618   +01 10 07.46  .21801 1.1948 150.0 20.2  55d  73
2023 10 02 08  22 31 26.066   +01 13 04.79  .21810 1.1948 150.0 20.2  55d  73
2023 10 02 09  22 31 23.522   +01 16 02.00  .21818 1.1948 149.9 20.2  55d  73
2023 10 02 10  22 31 20.986   +01 18 59.08  .21826 1.1948 149.9 20.2  55d  73
2023 10 02 11  22 31 18.458   +01 21 56.03  .21835 1.1948 149.8 20.2  55d  73
2023 10 02 12  22 31 15.939   +01 24 52.84  .21843 1.1948 149.8 20.2  55d  73
2023 10 02 13  22 31 13.428   +01 27 49.53  .21852 1.1948 149.7 20.2  55d  73
2023 10 02 14  22 31 10.925   +01 30 46.09  .21860 1.1948 149.7 20.2  55d  73
2023 10 02 15  22 31 08.431   +01 33 42.52  .21869 1.1947 149.6 20.2  55d  73
2023 10 02 16  22 31 05.945   +01 36 38.82  .21877 1.1947 149.6 20.2  55d  73
2023 10 02 17  22 31 03.468   +01 39 34.98  .21886 1.1947 149.5 20.2  55d  73
2023 10 02 18  22 31 00.999   +01 42 31.02  .21894 1.1947 149.5 20.2  55d  73